• In Latvia
  • List of Countries
  • For 7 days
  • Water Temperature
  • Satellite Maps
  • Weather Map
  • Weather Widgets
  • user-avatar
    Login

    Hourly Weather Permet

    Today, 25 June, Monday

    Time Temperature Precipitation Wind Pressure Humidity
    00:00 +14°C° 0 mm 2 mps 696 mmHg 87%
    01:00 +14°C° 0 mm 1 mps 695 mmHg 88%
    02:00 +14°C° 0 mm 1 mps 695 mmHg 89%
    03:00 +14°C° 0 mm 2 mps 695 mmHg 90%
    04:00 +14°C° 0 mm 2 mps 695 mmHg 90%
    05:00 +15°C° 0.1 mm 2 mps 695 mmHg 87%
    06:00 +16°C° 0.1 mm 2 mps 696 mmHg 83%
    07:00 +17°C° 0.1 mm 2 mps 696 mmHg 80%
    08:00 +18°C° 0.8 mm 2 mps 696 mmHg 77%
    09:00 +19°C° 0.8 mm 2 mps 696 mmHg 75%
    10:00 +19°C° 0.8 mm 2 mps 696 mmHg 73%
    11:00 +19°C° 1.8 mm 2 mps 696 mmHg 76%
    12:00 +18°C° 1.8 mm 2 mps 696 mmHg 79%
    13:00 +18°C° 1.8 mm 2 mps 696 mmHg 82%
    14:00 +18°C° 1.2 mm 2 mps 696 mmHg 84%
    15:00 +17°C° 1.2 mm 2 mps 695 mmHg 85%
    16:00 +17°C° 1.2 mm 2 mps 695 mmHg 86%
    17:00 +17°C° 0.6 mm 2 mps 695 mmHg 87%
    18:00 +16°C° 0.6 mm 2 mps 695 mmHg 88%
    19:00 +16°C° 0.6 mm 2 mps 695 mmHg 89%
    20:00 +16°C° 0.8 mm 2 mps 695 mmHg 89%
    21:00 +15°C° 0.8 mm 2 mps 695 mmHg 90%
    22:00 +15°C° 0.8 mm 2 mps 695 mmHg 91%
    23:00 +15°C° 0.6 mm 2 mps 695 mmHg 91%

    Tomorrow, 26 June, Tuesday

    Time Temperature Precipitation Wind Pressure Humidity
    00:00 +15°C° 0.6 mm 2 mps 694 mmHg 92%
    01:00 +14°C° 0.6 mm 2 mps 694 mmHg 92%
    02:00 +14°C° 0.6 mm 2 mps 694 mmHg 92%
    03:00 +14°C° 0.6 mm 2 mps 694 mmHg 92%
    04:00 +14°C° 0.6 mm 2 mps 693 mmHg 92%
    05:00 +14°C° 0.7 mm 2 mps 693 mmHg 90%
    06:00 +15°C° 0.7 mm 2 mps 693 mmHg 89%
    07:00 +15°C° 0.7 mm 2 mps 693 mmHg 88%
    08:00 +16°C° 0.3 mm 2 mps 693 mmHg 84%
    09:00 +17°C° 0.3 mm 2 mps 693 mmHg 81%
    10:00 +18°C° 0.3 mm 2 mps 693 mmHg 77%
    11:00 +17°C° 1.1 mm 2 mps 693 mmHg 79%
    12:00 +17°C° 1.1 mm 2 mps 693 mmHg 81%
    13:00 +17°C° 1.1 mm 2 mps 693 mmHg 83%
    14:00 +17°C° 0.9 mm 2 mps 692 mmHg 83%
    15:00 +17°C° 0.9 mm 2 mps 692 mmHg 83%
    16:00 +17°C° 0.9 mm 2 mps 692 mmHg 84%
    17:00 +17°C° 1.3 mm 2 mps 692 mmHg 86%
    18:00 +16°C° 1.3 mm 2 mps 692 mmHg 88%
    19:00 +16°C° 1.3 mm 2 mps 691 mmHg 90%
    20:00 +16°C° 0.9 mm 2 mps 692 mmHg 91%
    21:00 +15°C° 0.9 mm 2 mps 692 mmHg 91%
    22:00 +15°C° 0.9 mm 2 mps 692 mmHg 91%
    23:00 +15°C° 0.4 mm 2 mps 691 mmHg 91%

    Day after tomorrow, 27 June, Wednesday

    Time Temperature Precipitation Wind Pressure Humidity
    00:00 +15°C° 0.4 mm 2 mps 691 mmHg 91%
    01:00 +15°C° 0.4 mm 2 mps 691 mmHg 91%
    02:00 +15°C° 0.2 mm 2 mps 691 mmHg 91%
    03:00 +15°C° 0.2 mm 2 mps 691 mmHg 91%
    04:00 +15°C° 0.2 mm 2 mps 690 mmHg 91%
    05:00 +15°C° 0 mm 2 mps 691 mmHg 89%
    06:00 +16°C° 0 mm 1 mps 691 mmHg 86%
    07:00 +18°C° 0 mm 1 mps 691 mmHg 83%
    08:00 +18°C° 0.3 mm 2 mps 691 mmHg 78%
    09:00 +19°C° 0.3 mm 2 mps 691 mmHg 74%
    10:00 +20°C° 0.3 mm 2 mps 691 mmHg 70%
    11:00 +20°C° 1.1 mm 2 mps 691 mmHg 71%
    12:00 +20°C° 1.1 mm 2 mps 691 mmHg 72%
    13:00 +20°C° 1.1 mm 2 mps 691 mmHg 74%
    14:00 +20°C° 1.2 mm 2 mps 691 mmHg 76%
    15:00 +19°C° 1.2 mm 2 mps 691 mmHg 78%
    16:00 +19°C° 1.2 mm 2 mps 690 mmHg 80%
    17:00 +18°C° 0.5 mm 2 mps 691 mmHg 82%
    18:00 +17°C° 0.5 mm 2 mps 691 mmHg 84%
    19:00 +17°C° 0.5 mm 2 mps 691 mmHg 86%
    20:00 +16°C° 0.1 mm 2 mps 691 mmHg 87%
    21:00 +15°C° 0.1 mm 2 mps 691 mmHg 88%
    22:00 +14°C° 0.1 mm 1 mps 691 mmHg 89%
    23:00 +14°C° 0 mm 1 mps 691 mmHg 89%

    28 June, Thursday

    Time Temperature Precipitation Wind Pressure Humidity
    00:00 +14°C° 0 mm 1 mps 691 mmHg 89%
    01:00 +13°C° 0 mm 1 mps 691 mmHg 89%
    02:00 +13°C° 0 mm 1 mps 691 mmHg 89%
    03:00 +13°C° 0 mm 1 mps 691 mmHg 89%
    04:00 +13°C° 0 mm 1 mps 691 mmHg 89%
    05:00 +14°C° 0 mm 1 mps 691 mmHg 85%
    06:00 +16°C° 0 mm 1 mps 691 mmHg 81%
    07:00 +18°C° 0 mm 1 mps 692 mmHg 77%
    08:00 +18°C° 0.3 mm 2 mps 692 mmHg 73%
    09:00 +19°C° 0.3 mm 2 mps 692 mmHg 69%
    10:00 +20°C° 0.3 mm 3 mps 692 mmHg 65%
    11:00 +20°C° 1 mm 3 mps 692 mmHg 65%
    12:00 +20°C° 1 mm 3 mps 693 mmHg 65%
    13:00 +20°C° 1 mm 3 mps 693 mmHg 66%
    14:00 +20°C° 0.6 mm 3 mps 693 mmHg 67%
    15:00 +20°C° 0.6 mm 3 mps 693 mmHg 69%
    16:00 +19°C° 0.6 mm 3 mps 693 mmHg 71%
    17:00 +18°C° 0.1 mm 3 mps 693 mmHg 75%
    18:00 +17°C° 0.1 mm 2 mps 693 mmHg 79%
    19:00 +16°C° 0.1 mm 2 mps 694 mmHg 84%
    20:00 +15°C° 0 mm 1 mps 694 mmHg 86%
    21:00 +15°C° 0 mm 1 mps 694 mmHg 88%
    22:00 +14°C° 0 mm 1 mps 694 mmHg 90%
    23:00 +14°C° 0 mm 1 mps 694 mmHg 91%

    29 June, Friday

    Time Temperature Precipitation Wind Pressure Humidity
    00:00 +13°C° 0 mm 1 mps 694 mmHg 92%
    01:00 +13°C° 0 mm 1 mps 694 mmHg 93%
    02:00 +13°C° 0 mm 1 mps 694 mmHg 93%
    03:00 +13°C° 0 mm 1 mps 694 mmHg 93%
    04:00 +13°C° 0 mm 2 mps 694 mmHg 93%
    05:00 +14°C° 0 mm 1 mps 694 mmHg 87%
    06:00 +16°C° 0 mm 1 mps 694 mmHg 81%
    07:00 +19°C° 0 mm 1 mps 695 mmHg 76%
    08:00 +19°C° 0 mm 2 mps 695 mmHg 69%
    09:00 +21°C° 0 mm 2 mps 695 mmHg 62%
    10:00 +23°C° 0 mm 2 mps 696 mmHg 56%
    11:00 +22°C° 0.1 mm 3 mps 695 mmHg 56%
    12:00 +24°C° 0.1 mm 3 mps 695 mmHg 57%
    13:00 +24°C° 0.1 mm 3 mps 695 mmHg 57%
    14:00 +24°C° 0.2 mm 3 mps 695 mmHg 59%
    15:00 +24°C° 0.2 mm 3 mps 695 mmHg 62%
    16:00 +22°C° 0.2 mm 3 mps 695 mmHg 64%
    17:00 +21°C° 0.1 mm 2 mps 695 mmHg 70%
    18:00 +19°C° 0.1 mm 2 mps 695 mmHg 75%
    19:00 +19°C° 0.1 mm 1 mps 694 mmHg 81%
    20:00 +18°C° 0 mm 1 mps 695 mmHg 83%
    21:00 +16°C° 0 mm 1 mps 695 mmHg 84%
    22:00 +16°C° 0 mm 1 mps 695 mmHg 86%
    23:00 +15°C° 0 mm 1 mps 695 mmHg 86%

    30 June, Saturday

    Time Temperature Precipitation Wind Pressure Humidity
    00:00 +15°C° 0 mm 1 mps 694 mmHg 87%
    01:00 +15°C° 0 mm 1 mps 694 mmHg 87%
    02:00 +14°C° 0 mm 1 mps 694 mmHg 87%
    03:00 +14°C° 0 mm 1 mps 694 mmHg 86%
    04:00 +14°C° 0 mm 1 mps 694 mmHg 86%
    05:00 +16°C° 0 mm 1 mps 694 mmHg 82%
    06:00 +18°C° 0 mm 1 mps 695 mmHg 77%
    07:00 +20°C° 0 mm 1 mps 695 mmHg 73%
    08:00 +20°C° 0 mm 2 mps 695 mmHg 68%
    09:00 +21°C° 0 mm 2 mps 695 mmHg 64%
    10:00 +24°C° 0 mm 3 mps 695 mmHg 59%
    11:00 +24°C° 0 mm 3 mps 695 mmHg 59%
    12:00 +25°C° 0 mm 3 mps 695 mmHg 59%
    13:00 +25°C° 0 mm 3 mps 695 mmHg 59%
    14:00 +25°C° 0 mm 3 mps 695 mmHg 61%
    15:00 +25°C° 0 mm 3 mps 694 mmHg 63%
    16:00 +25°C° 0 mm 3 mps 694 mmHg 65%
    17:00 +22°C° 0.1 mm 3 mps 694 mmHg 71%
    18:00 +21°C° 0.1 mm 3 mps 694 mmHg 78%
    19:00 +19°C° 0.1 mm 2 mps 694 mmHg 84%
    20:00 +19°C° 0 mm 2 mps 694 mmHg 86%
    21:00 +18°C° 0 mm 2 mps 695 mmHg 88%
    22:00 +17°C° 0 mm 2 mps 695 mmHg 89%
    23:00 +17°C° 0 mm 2 mps 695 mmHg 89%
    Show more